04.05.2024;10:00;6
04.05.2024;09:00;5
04.05.2024;08:00;7
04.05.2024;07:00;7
04.05.2024;06:00;6
04.05.2024;05:00;5
04.05.2024;04:00;4
04.05.2024;03:00;4
04.05.2024;02:00;4
04.05.2024;01:00;4
04.05.2024;00:00;5
03.05.2024;23:00;4
03.05.2024;22:00;6
03.05.2024;21:00;7
03.05.2024;20:00;6
03.05.2024;19:00;6
03.05.2024;18:00;6
03.05.2024;17:00;5
03.05.2024;16:00;7
03.05.2024;15:00;6
03.05.2024;14:00;6
03.05.2024;13:00;7
03.05.2024;12:00;8
03.05.2024;11:00;5
03.05.2024;10:00;6
03.05.2024;09:00;7
03.05.2024;08:00;7
03.05.2024;07:00;7
03.05.2024;06:00;7
03.05.2024;05:00;7
03.05.2024;04:00;5
03.05.2024;03:00;5
03.05.2024;02:00;9
03.05.2024;01:00;9
03.05.2024;00:00;10
02.05.2024;23:00;9
02.05.2024;22:00;10
02.05.2024;21:00;6
02.05.2024;20:00;8
02.05.2024;19:00;4
02.05.2024;18:00;4
02.05.2024;17:00;3
02.05.2024;16:00;3
02.05.2024;15:00;2
02.05.2024;14:00;3
02.05.2024;13:00;3
02.05.2024;12:00;3
02.05.2024;11:00;4
